Regional Weather Roundup
Issued by NWS

Home | Current Version | Previous Version | Text Only | Print | Product List | Glossary Off
Versions: 1 2 3 4 5 6 7 8 9 10 11 12 13 14 15 16 17 18 19 20 21 22 23 24 25 26 27 28 29 30 31 32 33 34 35 36 37 38 39 40 41 42 43 44 45 46 47 48 49 50

764
ASUS45 KBOU 260807
RWRCO

WEATHER ROUNDUP FOR COLORADO
NATIONAL WEATHER SERVICE DENVER/BOULDER CO
200 AM MDT THU MAY 26 2016

NOTE: "FAIR" INDICATES FEW OR NO CLOUDS BELOW 12000 FEET WITH NO
SIGNIFICANT WEATHER AND/OR OBSTRUCTIONS TO VISIBILITY.

COZ001>005-013-030-031-260900-
...NORTHWEST COLORADO...

CITY           SKY/WX    TMP DP  RH WIND       PRES   REMARKS
CRAIG          FAIR      36  31  82 E3        30.06F
HAYDEN         FAIR      41  27  56 CALM      30.07S
MEEKER         FAIR      43  27  53 CALM      30.05F
MOUNT WERNER   NOT AVBL
STEAMBOAT SPGS FAIR      38  28  66 CALM      30.07F
WALDEN         FAIR      30  23  74 NW5       30.13F WCI  25
$$

COZ006>008-011-260900-
...WEST CENTRAL VALLEYS...

CITY           SKY/WX    TMP DP  RH WIND       PRES   REMARKS
GRAND JUNCTION FAIR      54  27  35 W6        29.92F
MONTROSE       FAIR      53  21  28 E9        29.99F
EAGLE          FAIR      39  19  45 CALM      30.08S
RIFLE          FAIR      45  28  51 VRB3      29.99F
DELTA          FAIR      55  19  25 NE8       29.96R
NUCLA          FAIR      52  21  30 MISG      30.01S
$$

COZ017>023-064>068-260900-
...SOUTHWEST COLORADO...

CITY           SKY/WX    TMP DP  RH WIND       PRES   REMARKS
DURANGO        MOCLDY    44  28  53 NE3       30.04F
CORTEZ         FAIR      47  25  42 E8        30.00F
PAGOSA SPRINGS CLOUDY    53  23  31 NW5       30.12F
TELLURIDE      FAIR      43  18  36 S3        30.16S
WOLF CREEK PAS FAIR      30  23  74 SW17      30.29F WCI  18
$$

COZ009-010-012-014-032>034-037-058>063-260900-
...CENTRAL COLORADO...

CITY           SKY/WX    TMP DP  RH WIND       PRES   REMARKS
ASPEN          FAIR      37  18  46 S6        30.08F
BUENA VISTA    FAIR      40  13  33 NW10      30.11F
COPPER MTN     NOT AVBL
BERTHOUD PASS  FAIR      30  21  69 S3        30.29F
COTTONWOOD PAS FAIR      46   1  15 W9        30.18F
GUNNISON       FAIR      39  19  45 SE5       30.14R
KREMMLING      FAIR      34  25  69 CALM      30.11F
LEADVILLE      FAIR      30   8  39 E7        30.17F WCI  23
MONARCH PASS   CLOUDY    34   9  35 MISG      30.38S
SALIDA         CLOUDY    47  16  29 W5        30.17S
SUNLIGHT       FAIR      39  16  38 CALM      30.24F
WILKERSON PASS FAIR      39  -2  17 CALM      30.27F
$$

COZ069>075-260900-
...SAN LUIS VALLEY/SANGRE DE CRISTO MOUNTAINS...

CITY           SKY/WX    TMP DP  RH WIND       PRES   REMARKS
ALAMOSA        FAIR      46  29  51 CALM      30.09F
LA VETA PASS   FAIR      39  25  56 S9        30.19F
SAGUACHE       MOCLDY    43  19  39 N9        30.12S
$$

COZ035-036-038>040-260900-
...NORTHERN COLORADO FRONT RANGE...

CITY           SKY/WX    TMP DP  RH WIND       PRES   REMARKS
DENVER INTL AP FAIR      49  41  74 CALM      30.02S
DMNS CITY PARK   N/A     52  40  64 NE3G13    30.03S
AURORA         PTCLDY    46  42  85 CALM      30.04S
FRONT RANGE AP NOT AVBL
ERIE MUNI ARPT FAIR      46  42  85 CALM      30.02F
BOULDER MUN AP FAIR      54  39  58 SW8       30.02F
CENTENNIAL     FAIR      49  40  71 N7        30.04S
BROOMFIELD     FAIR      52  39  62 NW7       30.04F
FORT COLLINS   FAIR      52  41  66 CALM      30.02F
LONGMONT       FAIR      51  42  73 CALM      30.04S
$$

COZ041-046-047-076>085-087-088-260900-
...PIKES PEAK/PALMER DIVIDE AND SOUTHERN FOOTHILLS...

CITY           SKY/WX    TMP DP  RH WIND       PRES   REMARKS
COLO. SPRINGS  MOCLDY    53  38  56 N14       30.03R
A. F. ACADEMY  MOCLDY    48  39  71 N16       30.03S
SCHRIEVER AFB  NOT AVBL
ELLICOTT       FAIR     N/A N/A N/A NE16      29.98F
FALCON         FAIR      50  37  62 N12       30.06R
FORT CARSON    FAIR      55  38  52 N15       29.98S
LIMON          FAIR      48  41  76 NE12      29.99R
MONUMENT HILL  FAIR      41  39  93 N3        30.09S
TRINIDAD       FAIR      50  18  28 SW14      29.96F
$$

COZ042>045-048>051-090-091-260900-
...NORTHEAST COLORADO...

CITY           SKY/WX    TMP DP  RH WIND       PRES   REMARKS
GREELEY ARPT   FAIR      48  41  76 W7        30.01F
AKRON          FAIR      52  40  63 E9        29.97F
BURLINGTON     CLOUDY    54  46  74 N9        29.95S
WRAY           FAIR      48  48 100 CALM      29.95S
STERLING       FAIR      54  45  71 N7        29.93F
HOLYOKE        NOT AVBL
FORT MORGAN    FAIR      51  40  66 CALM      29.98S
$$

COZ086-089-092>099-260900-
...SOUTHEAST COLORADO...

CITY           SKY/WX    TMP DP  RH WIND       PRES   REMARKS
PUEBLO         FAIR      59  35  40 VRB3      29.93R
LA JUNTA       FAIR      57  43  59 N13       29.89S
LAMAR          FAIR      44  33  65 CALM      29.85R
SPRINGFIELD      N/A     57  20  23 W10       29.86F
$$




USA.gov is the U.S. government's official web portal to all federal, state and local government web resources and services.